sat.trackr.live / text

‹ back to catalog

KUIPER-00057

NORAD 64517 · 2025-134T

PAYLOAD ACTIVE UNKNOWN

§ Identity

Operator
Country
US
Launch date
2025-06-23
Launch site
AFETR
Launch vehicle
Mass (kg)
RCS (m²)

External: N2YO · Heavens-Above · Gunter

§ Orbital elements

Epoch: 2026-05-24T18:32:56.633280Z

Period
97.30 min
Inclination
51.8984°
Eccentricity
0.0000540
Mean motion
14.79937190 rev/d
Perigee alt
629.1 km
Apogee alt
629.9 km
Semi-major
7,007.7 km
B*
2.0178e-4
RAAN
254.1357°
Arg perigee
111.5261°
Mean anomaly
248.5759°
Rev number
5,137

§ Raw data

KUIPER-000571 64517U 25134T   26144.77287770  .00001318  00000+0  20178-3 0  99932 64517  51.8984 254.1357 0000540 111.5261 248.5759 14.79937190 51379

JSON: /api/v1/satellites/64517 · /tle

For live sub-satellite position, see the globe view (requires WebGL).

§ Visibility from observer

Set your observer location to see the next 7 days of passes ≥ 10°. The values pass through the URL so the page stays shareable.

No JS? Fill the form by hand. The geolocation button needs JavaScript.